Location: Unspecified
(34.4950°S, 58.5160°W)
Time: 15:20:08
(UTC+00:00)

Cosmos 1655 Rocket - Pass Details

Date: 04 July 2022
Orbit: 971 x 1005 km, 83.0° (Epoch: 11 August)

Event Time Altitude Azimuth Distance (km) Brightness Sun altitude
Rises 09:25:28 0° 174° (S) 3,744 7.0 -19.2°
Reaches altitude 10° 09:28:24 10° 163° (SSE) 2,782 6.4 -18.6°
Maximum altitude 09:33:52 29° 104° (ESE) 1,730 5.9 -17.6°
Drops below altitude 10° 09:39:13 10° 45° (NE) 2,734 7.3 -16.5°
Sets 09:42:04 0° 34° (NE) 3,669 7.9 -15.9°
